Location: Bailleul
(50.3375°N, 2.8513°E)
Time: 18:47:33
(UTC+00:00)

Terra - Pass Details

Date: 02 August 2021
Orbit: 701 x 703 km, 98.2° (Epoch: 17 September)

Event Time Altitude Azimuth Distance (km) Brightness Sun altitude
Exits shadow 22:02:03 24° 194° (SSW) 1,451 3.0 -17.7°
Maximum altitude 22:04:44 51° 260° (W) 887 2.4 -17.9°
Drops below altitude 10° 22:09:24 10° 337° (NNW) 2,184 5.6 -18.3°
Sets 22:11:44 0° 342° (NNW) 3,107 6.8 -18.4°
